EW9525 Weather Reports


Display with metric or nautical units.
time (UTC)temp
F
wind
direction
speed
MPH
gust
MPH
rain 1hr
in
rain 24hr
in
rain mn
in
humidity
%
barometer
mb
20260904043001 72 219 0.0 0.0 0.00 0.00 0.00 68 1006.0
20260904041611 71 218 0.0 0.0 0.00 0.00 0.00 70 1006.2
20260904040100 72 153 0.0 3.0 0.00 0.00 0.00 69 1006.3
20260904034559 71 357 0.0 3.0 0.00 0.00 0.00 70 1006.2
20260904033103 73 2 3.0 4.0 0.00 0.00 0.00 67 1006.2
20260904031606 72 220 0.0 0.0 0.00 0.00 0.00 68 1006.2
20260904030057 73 190 0.0 4.0 0.00 0.00 0.00 67 1006.3
20260904024555 75 357 0.0 0.0 0.00 0.00 0.00 61 1005.8
20260904023154 77 354 0.0 0.0 0.00 0.00 0.00 56 1005.7
20260904021554 79 345 0.0 0.0 0.00 0.00 0.00 54 1005.8
20260904020051 79 345 0.0 2.0 0.00 0.00 0.00 55 1005.6
20260904014553 80 360 0.0 0.0 0.00 0.00 0.00 56 1005.4
20260904013052 81 77 0.0 0.0 0.00 0.00 0.00 57 1005.3
20260904011553 83 78 0.0 0.0 0.00 0.00 0.00 54 1005.1
20260904010052 85 82 0.0 0.0 0.00 0.00 0.00 51 1005.0
20260904004550 87 89 0.0 1.0 0.00 0.00 0.00 48 1005.2
20260904003050 89 86 0.0 2.0 0.00 0.00 0.00 45 1005.1
20260904001549 90 79 1.0 3.0 0.00 0.00 0.00 42 1005.0
20260904000049 91 84 2.0 4.0 0.00 0.00 0.00 41 1004.9
20260903234548 91 95 4.0 7.0 0.00 0.00 0.00 40 1004.9
20260903233048 92 82 4.0 6.0 0.00 0.00 0.00 39 1004.7
20260903231552 92 86 5.0 7.0 0.00 0.00 0.00 39 1004.6
20260903230049 93 68 3.0 9.0 0.00 0.00 0.00 34 1004.5
20260903224547 93 58 6.0 10.0 0.00 0.00 0.00 36 1004.4
20260903223045 93 41 6.0 12.0 0.00 0.00 0.00 35 1004.4
20260903221549 93 46 7.0 11.0 0.00 0.00 0.00 36 1004.4
20260903220043 93 22 5.0 10.0 0.00 0.00 0.00 35 1004.5
20260903214544 93 34 8.0 12.0 0.00 0.00 0.00 36 1004.5
20260903213042 92 324 6.0 14.0 0.00 0.00 0.00 35 1004.5
20260903211548 92 6 7.0 15.0 0.00 0.00 0.00 36 1004.6
20260903210041 92 24 8.0 13.0 0.00 0.00 0.00 37 1004.7
20260903204537 91 327 6.0 12.0 0.00 0.00 0.00 37 1004.8
20260903203046 91 30 7.0 13.0 0.00 0.00 0.00 39 1004.7
20260903201534 91 313 8.0 14.0 0.00 0.00 0.00 40 1004.8
20260903200042 90 30 6.0 11.0 0.00 0.00 0.00 42 1004.7
20260903194540 90 52 4.0 11.0 0.00 0.00 0.00 44 1004.9
20260903193035 89 300 5.0 11.0 0.00 0.00 0.00 43 1004.9
20260903191533 88 345 4.0 10.0 0.00 0.00 0.00 42 1004.9
20260903190026 88 32 6.0 10.0 0.00 0.00 0.00 43 1004.9
20260903184523 87 41 3.0 9.0 0.00 0.00 0.00 46 1005.1
20260903183022 87 11 5.0 11.0 0.00 0.00 0.00 46 1005.2
20260903181519 87 258 0.0 7.0 0.00 0.00 0.00 50 1005.4
20260903180030 86 24 5.0 8.0 0.00 0.00 0.00 50 1005.4
20260903174514 85 51 4.0 8.0 0.00 0.00 0.00 49 1005.6
20260903173013 84 16 3.0 9.0 0.00 0.00 0.00 50 1005.7
20260903171511 84 11 2.0 9.0 0.00 0.00 0.00 50 1005.6
20260903170008 83 323 5.0 11.0 0.00 0.00 0.00 49 1005.5
20260903164508 83 7 4.0 9.0 0.00 0.00 0.00 49 1005.2
20260903163005 82 16 2.0 12.0 0.00 0.00 0.00 50 1005.1
20260903161503 82 330 4.0 8.0 0.00 0.00 0.00 50 1005.3
20260903160109 82 305 3.0 7.0 0.00 0.00 0.00 53 1005.1
20260903154600 81 11 4.0 8.0 0.00 0.00 0.00 53 1005.0
20260903153057 80 9 3.0 6.0 0.00 0.00 0.00 55 1004.8
20260903151556 79 89 0.0 6.0 0.00 0.00 0.00 59 1004.8
20260903150057 77 210 2.0 6.0 0.00 0.00 0.00 59 1005.1
20260903144554 76 200 3.0 7.0 0.00 0.00 0.00 60 1005.1
20260903143046 75 185 1.0 6.0 0.00 0.00 0.00 63 1005.1
20260903141542 74 207 1.0 4.0 0.00 0.00 0.00 65 1005.1
20260903140040 74 202 0.0 4.0 0.00 0.00 0.00 66 1005.1
20260903134536 73 122 0.0 0.0 0.00 0.00 0.00 69 1005.1
20260903133034 70 113 0.0 0.0 0.00 0.00 0.00 74 1005.0
20260903131538 67 66 0.0 0.0 0.00 0.00 0.00 78 1005.0
20260903130041 66 86 0.0 0.0 0.00 0.00 0.00 79 1005.0
20260903124532 65 35 0.0 0.0 0.00 0.00 0.00 79 1004.8
20260903123035 64 79 0.0 0.0 0.00 0.00 0.00 80 1004.7
20260903121538 64 332 0.0 2.0 0.00 0.00 0.00 80 1004.7
20260903120029 64 307 1.0 4.0 0.00 0.00 0.00 78 1004.7
20260903114528 64 319 1.0 3.0 0.00 0.00 0.00 77 1004.5
20260903113034 64 321 2.0 3.0 0.00 0.00 0.00 76 1004.6
20260903111526 64 328 0.0 2.0 0.00 0.00 0.00 75 1004.6
20260903104524 64 323 1.0 3.0 0.00 0.00 0.00 75 1004.8
20260903103023 65 119 4.0 5.0 0.00 0.00 0.00 72 1004.5
20260903101522 65 31 0.0 4.0 0.00 0.00 0.00 72 1004.9
20260903100025 66 114 2.0 4.0 0.00 0.00 0.00 67 1004.8
20260903094543 65 59 0.0 1.0 0.00 0.00 0.00 68 1005.1
20260903093019 68 329 0.0 1.0 0.00 0.00 0.00 61 1005.0
20260903091521 69 321 0.0 2.0 0.00 0.00 0.00 58 1004.9
20260903090017 68 309 3.0 6.0 0.00 0.00 0.00 59 1004.9
20260903084516 65 316 0.0 2.0 0.00 0.00 0.00 70 1005.1
20260903083014 67 1 3.0 4.0 0.00 0.00 0.00 66 1005.0
20260903081512 70 230 0.0 0.0 0.00 0.00 0.00 57 1004.7
20260903080011 67 326 0.0 0.0 0.00 0.00 0.00 62 1004.8
20260903074510 67 76 0.0 0.0 0.00 0.00 0.00 64 1004.8
20260903073010 68 90 3.0 5.0 0.00 0.00 0.00 60 1005.0
20260903071505 69 234 0.0 2.0 0.00 0.00 0.00 54 1004.8
20260903070004 71 250 1.0 2.0 0.00 0.00 0.00 51 1004.8
20260903064503 71 260 2.0 4.0 0.00 0.00 0.00 50 1004.7
20260903063005 70 240 2.0 3.0 0.00 0.00 0.00 53 1004.7
20260903061501 72 242 2.0 4.0 0.00 0.00 0.00 51 1004.7
20260903060057 71 240 3.0 4.0 0.00 0.00 0.00 51 1004.5
20260903054557 69 228 1.0 2.0 0.00 0.00 0.00 56 1004.3
20260903053107 70 231 2.0 4.0 0.00 0.00 0.00 55 1004.3
20260903051556 70 235 2.0 3.0 0.00 0.00 0.00 56 1004.4
20260903050048 70 242 2.0 3.0 0.00 0.00 0.00 56 1004.1
20260903044554 70 231 2.0 3.0 0.00 0.00 0.00 56 1004.4